sat.trackr.live / text

‹ back to catalog

STARLINK-34405

NORAD 64704 · 2025-142J

PAYLOAD ACTIVE UNKNOWN

§ Identity

Operator
Country
US
Launch date
2025-06-28
Launch site
AFWTR
Launch vehicle
Mass (kg)
RCS (m²)

Purposes: comms

External: N2YO · Heavens-Above · Gunter

§ Orbital elements

Epoch: 2026-05-25T03:18:28.169856Z

Period
96.11 min
Inclination
70.0000°
Eccentricity
0.0003699
Mean motion
14.98337292 rev/d
Perigee alt
569.5 km
Apogee alt
574.6 km
Semi-major
6,950.2 km
B*
3.9403e-4
RAAN
121.6390°
Arg perigee
264.0347°
Mean anomaly
96.0390°
Rev number
5,094

§ Raw data

STARLINK-344051 64704U 25142J   26145.13782604  .00004613  00000+0  39403-3 0  99992 64704  70.0000 121.6390 0003699 264.0347  96.0390 14.98337292 50948

JSON: /api/v1/satellites/64704 · /tle

For live sub-satellite position, see the globe view (requires WebGL).

§ Visibility from observer

Set your observer location to see the next 7 days of passes ≥ 10°. The values pass through the URL so the page stays shareable.

No JS? Fill the form by hand. The geolocation button needs JavaScript.